STARLINK-32862, 62864

Orbit data source: Space-Track

STARLINK-32862, 62864 is a payload satellite owned by SpaceX/Seattle (US) in LEO that was launched on Sat, 01 Feb 2025 UTC via an FALCON 9 launch vehicle from the Air Force Western Test Range (AFWTR). Payload-class satellites include a variety of spacecraft equipped with specific instruments for various scientific and technological missions. These include communications satellites like Starlink; space stations such as the ISS; scientific satellites like the Hubble; Earth observation satellites from companies like Planet Labs, Umbra, and HawkEye 360; GPS; miniature CubeSats for education and research; and military/defense satellites.

Loading next visibility...
Identifier
62864, 2025-022L
Orbit
LEO
Country
Flag of USUS
Related business
Manufacturer
SpaceX/Seattle
Mission
Operational Commercial Communications
Bus & Motor
STARLINK V2M, Unknown motor
Mass
730 kg wet, ~700 kg dry
Launch date (UTC)
2025-02-01 (1 year ago)
Launch vehicle
FALCON 9
Launch site
Air Force Western Test Range (AFWTR)
Object type
Payload
Rocket body
Debris
Shape & HBR
Box + 2 Pan, 17.7 m
Radar Cross Section
33.884 m², Large (>1 m²)

Expand to show TLE details & history
Last TLE update: 10 hours ago

TLE from 10 hours ago
0 STARLINK-32862
1 62864U 25022L   26036.92533692  .00036688  00000-0  12437-2 0  9993
2 62864  53.1586 277.3869 0000836 101.4189 258.6905 15.30227214 57036
Epoch: 2026-02-05T22:12Z
TLE epoch observation values (Epoch: 2026-02-05T22:12:29.109Z)
Latitude
-0.0001°
Longitude
168.19497°
Altitude
476.146 km
Speed
7.629 km/s
True Right ascension
18h 29m 32s
True Declination
0° 00' 00"
Sunlit
Object was in daylight at epoch
Visualization orbit readout
Latitude
Unknown
Longitude
Unknown
Altitude
Unknown
Speed
Unknown
Apparent Right ascension
Unknown
Apparent Declination
Unknown
Sunlit
N/A
Visualization observer readout
Local Sidereal Time
10:43:33
Azimuth
Unknown
Elevation
Unknown
Doppler factor
Unknown
Orbital elements
Apogee altitude
475.963 km
Perigee altitude
474.818 km
Semi-major axis
6,853.527 km
Eccentricity
0.00008
Inclination
53.1586°
RAAN
277.3869°
Arg. of periapsis
101.4189°
True anomaly
258.68111°
Mean anomaly
258.6905°
Eccentric anomaly
258.6858°
Mean motion
3.82536 °/min
Orbital period
94.11 mins
BSTAR
0.0012437
Loading maneuver chart data...
Computing Atmospheric mass density...
Loading historical data...
Loading historical data...
Loading historical data...
Loading historical data...
Loading historical data...
Loading historical data...
Loading historical data...

Documentation

Showing up to 5 results
|